Location: Gull Harbor
(47.1000°N, 122.9000°W)
Time: 08:50:08
(UTC-07:00)

Envisat - Pass Details

Date: 23 March 2019
Orbit: 764 x 766 km, 98.2° (Epoch: 25 April)

Event Time Altitude Azimuth Distance (km) Brightness Sun altitude
Rises 21:02:25 0° 209° (SSW) 3,222 6.3 -16.4°
Reaches altitude 10° 21:05:29 10° 229° (SW) 2,302 5.8 -16.9°
Maximum altitude 21:08:50 18° 271° (W) 1,836 5.9 -17.4°
Drops below altitude 10° 21:12:12 10° 312° (NW) 2,313 6.6 -18.0°
Sets 21:15:18 0° 332° (NNW) 3,245 7.1 -18.5°
